Overview Statistics Trail Chart Weather Telemetry Raw packets
 

This is the latest recevied weather packets stored in our database for station/object KE8WMS. If no packets are shown the sender has not sent any weather packets the latest 10 day(s).

<< 48 49 50 51 52 53 54 >>
Time Temp. Humidity Pressure Rain* Wind** Luminosity Snow
1777524880 5.56° C 99% 1009.1 hPa 0 mm - 0 W/m² -
1777524578 5.56° C 99% 1008.9 hPa 1.78 mm - 0 W/m² -
1777524279 6.11° C 99% 1008.8 hPa 3.05 mm - 0 W/m² -
1777523972 6.11° C 99% 1008.9 hPa 3.05 mm - 0 W/m² -
1777523668 6.11° C 99% 1008.9 hPa 1.78 mm - 0 W/m² -
1777523364 6.11° C 99% 1009 hPa 0 mm - 0 W/m² -
1777523061 6.11° C 99% 1008.9 hPa 0 mm - 0 W/m² -
1777522758 6.11° C 99% 1008.8 hPa 1.78 mm - 0 W/m² -
1777522454 6.11° C 99% 1008.8 hPa 1.78 mm - 0 W/m² -
1777522152 6.11° C 99% 1008.8 hPa 1.27 mm - 0 W/m² -
1777521848 6.11° C 99% 1008.7 hPa 3.05 mm - 0 W/m² -
1777521544 6.11° C 99% 1009 hPa 1.78 mm - 0 W/m² -
1777521241 6.11° C 99% 1008.8 hPa 0 mm - 0 W/m² -
1777520939 6.11° C 99% 1008.7 hPa 0 mm - 0 W/m² -
1777520635 6.67° C 99% 1009 hPa 0 mm - 0 W/m² -
1777520332 6.67° C 99% 1008.6 hPa 0 mm - 0 W/m² -
1777520030 6.67° C 99% 1008.8 hPa 0 mm - 0 W/m² -
1777519726 6.67° C 99% 1008.7 hPa 0 mm - 0 W/m² -
1777519424 6.67° C 99% 1008.9 hPa 0 mm - 0 W/m² -
1777519120 6.67° C 99% 1008.6 hPa 0 mm - 0 W/m² -
1777518816 6.67° C 99% 1008.7 hPa 0 mm - 0 W/m² -
1777518512 6.67° C 99% 1008.7 hPa 0 mm - 0 W/m² -
1777518207 6.67° C 99% 1008.9 hPa 0 mm - 0 W/m² -
1777517904 6.67° C 99% 1008.7 hPa 0 mm - 0 W/m² -
1777517600 6.67° C 99% 1008.7 hPa 0 mm - 0 W/m² -

* Rain latest hour (hover to see other rain measurements)
** Current wind speed in m/s (hover to see current wind gust speed)